Year,Month,Day,Hour,Minute,Value (Times are PST for temperature in C)
2015,06,27,00,00,25.60
2015,06,27,00,01,25.50
2015,06,27,00,02,25.50
2015,06,27,00,03,25.40
2015,06,27,00,04,25.40
2015,06,27,00,05,25.30
2015,06,27,00,06,25.30
2015,06,27,00,07,25.30
2015,06,27,00,08,25.20
2015,06,27,00,09,25.10
2015,06,27,00,10,25.00
2015,06,27,00,11,24.90
2015,06,27,00,12,24.80
2015,06,27,00,13,24.70
2015,06,27,00,14,24.60
2015,06,27,00,15,24.50
2015,06,27,00,16,24.40
2015,06,27,00,17,24.30
2015,06,27,00,18,24.20
2015,06,27,00,19,24.10
2015,06,27,00,20,24.00
2015,06,27,00,21,23.90
2015,06,27,00,22,23.90
2015,06,27,00,23,23.80
2015,06,27,00,24,23.80
2015,06,27,00,25,23.70
2015,06,27,00,26,23.70
2015,06,27,00,27,23.70
2015,06,27,00,28,23.70
2015,06,27,00,29,23.60
2015,06,27,00,30,23.60
2015,06,27,00,31,23.60
2015,06,27,00,32,23.60
2015,06,27,00,33,23.60
2015,06,27,00,34,23.60
2015,06,27,00,35,23.60
2015,06,27,00,36,23.60
2015,06,27,00,37,23.50
2015,06,27,00,38,23.50
2015,06,27,00,39,23.40
2015,06,27,00,40,23.40
2015,06,27,00,41,23.40
2015,06,27,00,42,23.40
2015,06,27,00,43,23.40
2015,06,27,00,44,23.30
2015,06,27,00,45,23.30
2015,06,27,00,46,23.30
2015,06,27,00,47,23.30
2015,06,27,00,48,23.30
2015,06,27,00,49,23.30
2015,06,27,00,50,23.20
2015,06,27,00,51,23.20
2015,06,27,00,52,23.20
2015,06,27,00,53,23.20
2015,06,27,00,54,23.20
2015,06,27,00,55,23.10
2015,06,27,00,56,23.10
2015,06,27,00,57,23.10
2015,06,27,00,58,23.10
2015,06,27,00,59,23.20
2015,06,27,01,00,23.20
2015,06,27,01,01,23.10
2015,06,27,01,02,23.10
2015,06,27,01,03,23.10
2015,06,27,01,04,23.10
2015,06,27,01,05,23.10
2015,06,27,01,06,23.00
2015,06,27,01,07,23.00
2015,06,27,01,08,22.90
2015,06,27,01,09,22.90
2015,06,27,01,10,22.80
2015,06,27,01,11,22.80
2015,06,27,01,12,22.70
2015,06,27,01,13,22.70
2015,06,27,01,14,22.60
2015,06,27,01,15,22.60
2015,06,27,01,16,22.60
2015,06,27,01,17,22.50
2015,06,27,01,18,22.50
2015,06,27,01,19,22.50
2015,06,27,01,20,22.50
2015,06,27,01,21,22.50
2015,06,27,01,22,22.50
2015,06,27,01,23,22.50
2015,06,27,01,24,22.40
2015,06,27,01,25,22.40
2015,06,27,01,26,22.40
2015,06,27,01,27,22.40
2015,06,27,01,28,22.40
2015,06,27,01,29,22.40
2015,06,27,01,30,22.40
2015,06,27,01,31,22.30
2015,06,27,01,32,22.30
2015,06,27,01,33,22.30
2015,06,27,01,34,22.20
2015,06,27,01,35,22.20
2015,06,27,01,36,22.20
2015,06,27,01,37,22.20
2015,06,27,01,38,22.10
2015,06,27,01,39,22.10
2015,06,27,01,40,22.10
2015,06,27,01,41,22.00
2015,06,27,01,42,22.00
2015,06,27,01,43,21.90
2015,06,27,01,44,21.90
2015,06,27,01,45,21.90
2015,06,27,01,46,21.80
2015,06,27,01,47,21.80
2015,06,27,01,48,21.80
2015,06,27,01,49,21.80
2015,06,27,01,50,21.80
2015,06,27,01,51,21.80
2015,06,27,01,52,21.80
2015,06,27,01,53,21.80
2015,06,27,01,54,21.80
2015,06,27,01,55,21.80
2015,06,27,01,56,21.80
2015,06,27,01,57,21.90
2015,06,27,01,58,21.90
2015,06,27,01,59,21.90
2015,06,27,02,00,21.90
2015,06,27,02,01,21.90
2015,06,27,02,02,21.90
2015,06,27,02,03,21.80
2015,06,27,02,04,21.80
2015,06,27,02,05,21.80
2015,06,27,02,06,21.80
2015,06,27,02,07,21.80
2015,06,27,02,08,21.70
2015,06,27,02,09,21.70
2015,06,27,02,10,21.70
2015,06,27,02,11,21.70
2015,06,27,02,12,21.70
2015,06,27,02,13,21.60
2015,06,27,02,14,21.60
2015,06,27,02,15,21.60
2015,06,27,02,16,21.60
2015,06,27,02,17,21.60
2015,06,27,02,18,21.50
2015,06,27,02,19,21.50
2015,06,27,02,20,21.40
2015,06,27,02,21,21.40
2015,06,27,02,22,21.40
2015,06,27,02,23,21.30
2015,06,27,02,24,21.30
2015,06,27,02,25,21.30
2015,06,27,02,26,21.20
2015,06,27,02,27,21.20
2015,06,27,02,28,21.20
2015,06,27,02,29,21.20
2015,06,27,02,30,21.10
2015,06,27,02,31,21.10
2015,06,27,02,32,21.10
2015,06,27,02,33,21.10
2015,06,27,02,34,21.10
2015,06,27,02,35,21.10
2015,06,27,02,36,21.10
2015,06,27,02,37,21.20
2015,06,27,02,38,21.30
2015,06,27,02,39,21.30
2015,06,27,02,40,21.30
2015,06,27,02,41,21.40
2015,06,27,02,42,21.40
2015,06,27,02,43,21.40
2015,06,27,02,44,21.40
2015,06,27,02,45,21.40
2015,06,27,02,46,21.40
2015,06,27,02,47,21.40
2015,06,27,02,48,21.40
2015,06,27,02,49,21.30
2015,06,27,02,50,21.30
2015,06,27,02,51,21.30
2015,06,27,02,52,21.20
2015,06,27,02,53,21.20
2015,06,27,02,54,21.20
2015,06,27,02,55,21.20
2015,06,27,02,56,21.20
2015,06,27,02,57,21.10
2015,06,27,02,58,21.10
2015,06,27,02,59,21.10
2015,06,27,03,00,21.10
2015,06,27,03,01,21.00
2015,06,27,03,02,21.00
2015,06,27,03,03,20.90
2015,06,27,03,04,20.90
2015,06,27,03,05,20.80
2015,06,27,03,06,20.80
2015,06,27,03,07,20.70
2015,06,27,03,08,20.70
2015,06,27,03,09,20.70
2015,06,27,03,10,20.60
2015,06,27,03,11,20.60
2015,06,27,03,12,20.60
2015,06,27,03,13,20.60
2015,06,27,03,14,20.60
2015,06,27,03,15,20.60
2015,06,27,03,16,20.60
2015,06,27,03,17,20.60
2015,06,27,03,18,20.60
2015,06,27,03,19,20.60
2015,06,27,03,20,20.70
2015,06,27,03,21,20.70
2015,06,27,03,22,20.70
2015,06,27,03,23,20.70
2015,06,27,03,24,20.70
2015,06,27,03,25,20.70
2015,06,27,03,26,20.70
2015,06,27,03,27,20.70
2015,06,27,03,28,20.70
2015,06,27,03,29,20.70
2015,06,27,03,30,20.70
2015,06,27,03,31,20.70
2015,06,27,03,32,20.80
2015,06,27,03,33,20.80
2015,06,27,03,34,20.80
2015,06,27,03,35,20.80
2015,06,27,03,36,20.80
2015,06,27,03,37,20.80
2015,06,27,03,38,20.70
2015,06,27,03,39,20.70
2015,06,27,03,40,20.70
2015,06,27,03,41,20.60
2015,06,27,03,42,20.60
2015,06,27,03,43,20.50
2015,06,27,03,44,20.50
2015,06,27,03,45,20.40
2015,06,27,03,46,20.40
2015,06,27,03,47,20.40
2015,06,27,03,48,20.30
2015,06,27,03,49,20.30
2015,06,27,03,50,20.30
2015,06,27,03,51,20.30
2015,06,27,03,52,20.30
2015,06,27,03,53,20.30
2015,06,27,03,54,20.30
2015,06,27,03,55,20.30
2015,06,27,03,56,20.30
2015,06,27,03,57,20.30
2015,06,27,03,58,20.30
2015,06,27,03,59,20.30
2015,06,27,04,00,20.30
2015,06,27,04,01,20.30
2015,06,27,04,02,20.30
2015,06,27,04,03,20.40
2015,06,27,04,04,20.40
2015,06,27,04,05,20.50
2015,06,27,04,06,20.50
2015,06,27,04,07,20.50
2015,06,27,04,08,20.50
2015,06,27,04,09,20.50
2015,06,27,04,10,20.50
2015,06,27,04,11,20.50
2015,06,27,04,12,20.50
2015,06,27,04,13,20.40
2015,06,27,04,14,20.40
2015,06,27,04,15,20.40
2015,06,27,04,16,20.40
2015,06,27,04,17,20.40
2015,06,27,04,18,20.40
2015,06,27,04,19,20.40
2015,06,27,04,20,20.30
2015,06,27,04,21,20.30
2015,06,27,04,22,20.30
2015,06,27,04,23,20.30
2015,06,27,04,24,20.30
2015,06,27,04,25,20.30
2015,06,27,04,26,20.30
2015,06,27,04,27,20.30
2015,06,27,04,28,20.30
2015,06,27,04,29,20.30
2015,06,27,04,30,20.30
2015,06,27,04,31,20.30
2015,06,27,04,32,20.30
2015,06,27,04,33,20.40
2015,06,27,04,34,20.40
2015,06,27,04,35,20.40
2015,06,27,04,36,20.40
2015,06,27,04,37,20.40
2015,06,27,04,38,20.40
2015,06,27,04,39,20.40
2015,06,27,04,40,20.40
2015,06,27,04,41,20.40
2015,06,27,04,42,20.40
2015,06,27,04,43,20.30
2015,06,27,04,44,20.30
2015,06,27,04,45,20.30
2015,06,27,04,46,20.30
2015,06,27,04,47,20.20
2015,06,27,04,48,20.20
2015,06,27,04,49,20.20
2015,06,27,04,50,20.10
2015,06,27,04,51,20.10
2015,06,27,04,52,20.10
2015,06,27,04,53,20.10
2015,06,27,04,54,20.10
2015,06,27,04,55,20.10
2015,06,27,04,56,20.10
2015,06,27,04,57,20.10
2015,06,27,04,58,20.10
2015,06,27,04,59,20.20
2015,06,27,05,00,20.20
2015,06,27,05,01,20.20
2015,06,27,05,02,20.20
2015,06,27,05,03,20.10
2015,06,27,05,04,20.10
2015,06,27,05,05,20.10
2015,06,27,05,06,20.10
2015,06,27,05,07,20.10
2015,06,27,05,08,20.10
2015,06,27,05,09,20.10
2015,06,27,05,10,20.10
2015,06,27,05,11,20.10
2015,06,27,05,12,20.10
2015,06,27,05,13,20.10
2015,06,27,05,14,20.10
2015,06,27,05,15,20.10
2015,06,27,05,16,20.00
2015,06,27,05,17,20.00
2015,06,27,05,18,20.00
2015,06,27,05,19,20.00
2015,06,27,05,20,19.90
2015,06,27,05,21,19.90
2015,06,27,05,22,19.90
2015,06,27,05,23,19.90
2015,06,27,05,24,19.90
2015,06,27,05,25,19.90
2015,06,27,05,26,19.90
2015,06,27,05,27,19.90
2015,06,27,05,28,19.90
2015,06,27,05,29,19.90
2015,06,27,05,30,20.00
2015,06,27,05,31,20.00
2015,06,27,05,32,20.00
2015,06,27,05,33,20.10
2015,06,27,05,34,20.10
2015,06,27,05,35,20.10
2015,06,27,05,36,20.10
2015,06,27,05,37,20.10
2015,06,27,05,38,20.10
2015,06,27,05,39,20.10
2015,06,27,05,40,20.10
2015,06,27,05,41,20.10
2015,06,27,05,42,20.20
2015,06,27,05,43,20.20
2015,06,27,05,44,20.20
2015,06,27,05,45,20.20
2015,06,27,05,46,20.20
2015,06,27,05,47,20.20
2015,06,27,05,48,20.20
2015,06,27,05,49,20.20
2015,06,27,05,50,20.20
2015,06,27,05,51,20.30
2015,06,27,05,52,20.30
2015,06,27,05,53,20.30
2015,06,27,05,54,20.40
2015,06,27,05,55,20.40
2015,06,27,05,56,20.40
2015,06,27,05,57,20.40
2015,06,27,05,58,20.40
2015,06,27,05,59,20.40
2015,06,27,06,00,20.40
2015,06,27,06,01,20.40
2015,06,27,06,02,20.40
2015,06,27,06,03,20.40
2015,06,27,06,04,20.40
2015,06,27,06,05,20.40
2015,06,27,06,06,20.40
2015,06,27,06,07,20.40
2015,06,27,06,08,20.30
2015,06,27,06,09,20.30
2015,06,27,06,10,20.30
2015,06,27,06,11,20.20
2015,06,27,06,12,20.20
2015,06,27,06,13,20.20
2015,06,27,06,14,20.20
2015,06,27,06,15,20.20
2015,06,27,06,16,20.10
2015,06,27,06,17,20.00
2015,06,27,06,18,20.00
2015,06,27,06,19,19.90
2015,06,27,06,20,19.80
2015,06,27,06,21,19.80
2015,06,27,06,22,19.80
2015,06,27,06,23,19.70
2015,06,27,06,24,19.60
2015,06,27,06,25,19.60
2015,06,27,06,26,19.60
2015,06,27,06,27,19.60
2015,06,27,06,28,19.50
2015,06,27,06,29,19.50
2015,06,27,06,30,19.50
2015,06,27,06,31,19.50
2015,06,27,06,32,19.50
2015,06,27,06,33,19.50
2015,06,27,06,34,19.40
2015,06,27,06,35,19.40
2015,06,27,06,36,19.40
2015,06,27,06,37,19.40
2015,06,27,06,38,19.40
2015,06,27,06,39,19.50
2015,06,27,06,40,19.50
2015,06,27,06,41,19.60
2015,06,27,06,42,19.70
2015,06,27,06,43,19.80
2015,06,27,06,44,19.90
2015,06,27,06,45,20.00
2015,06,27,06,46,20.00
2015,06,27,06,47,20.10
2015,06,27,06,48,20.10
2015,06,27,06,49,20.20
2015,06,27,06,50,20.20
2015,06,27,06,51,20.20
2015,06,27,06,52,20.20
2015,06,27,06,53,20.30
2015,06,27,06,54,20.30
2015,06,27,06,55,20.30
2015,06,27,06,56,20.30
2015,06,27,06,57,20.40
2015,06,27,06,58,20.40
2015,06,27,06,59,20.40
2015,06,27,07,00,20.40
2015,06,27,07,01,20.30
2015,06,27,07,02,20.30
2015,06,27,07,03,20.30
2015,06,27,07,04,20.30
2015,06,27,07,05,20.40
2015,06,27,07,06,20.40
2015,06,27,07,07,20.40
2015,06,27,07,08,20.50
2015,06,27,07,09,20.60
2015,06,27,07,10,20.60
2015,06,27,07,11,20.60
2015,06,27,07,12,20.60
2015,06,27,07,13,20.70
2015,06,27,07,14,20.70
2015,06,27,07,15,20.70
2015,06,27,07,16,20.70
2015,06,27,07,17,20.70
2015,06,27,07,18,20.70
2015,06,27,07,19,20.70
2015,06,27,07,20,20.70
2015,06,27,07,21,20.70
2015,06,27,07,22,20.70
2015,06,27,07,23,20.70
2015,06,27,07,24,20.70
2015,06,27,07,25,20.70
2015,06,27,07,26,20.70
2015,06,27,07,27,20.70
2015,06,27,07,28,20.70
2015,06,27,07,29,20.80
2015,06,27,07,30,20.70
2015,06,27,07,31,20.70
2015,06,27,07,32,20.70
2015,06,27,07,33,20.70
2015,06,27,07,34,20.80
2015,06,27,07,35,20.80
2015,06,27,07,36,20.80
2015,06,27,07,37,20.80
2015,06,27,07,38,20.90
2015,06,27,07,39,20.90
2015,06,27,07,40,20.90
2015,06,27,07,41,20.90
2015,06,27,07,42,20.90
2015,06,27,07,43,21.00
2015,06,27,07,44,21.00
2015,06,27,07,45,21.10
2015,06,27,07,46,21.10
2015,06,27,07,47,21.10
2015,06,27,07,48,21.10
2015,06,27,07,49,21.10
2015,06,27,07,50,21.10
2015,06,27,07,51,21.10
2015,06,27,07,52,21.10
2015,06,27,07,53,21.10
2015,06,27,07,54,21.20
2015,06,27,07,55,21.10
2015,06,27,07,56,21.10
2015,06,27,07,57,21.10
2015,06,27,07,58,21.10
2015,06,27,07,59,21.20
2015,06,27,08,00,21.10
2015,06,27,08,01,21.20
2015,06,27,08,02,21.20
2015,06,27,08,03,21.20
2015,06,27,08,04,21.20
2015,06,27,08,05,21.10
2015,06,27,08,06,21.10
2015,06,27,08,07,21.10
2015,06,27,08,08,21.10
2015,06,27,08,09,21.10
2015,06,27,08,10,21.00
2015,06,27,08,11,21.00
2015,06,27,08,12,20.90
2015,06,27,08,13,20.90
2015,06,27,08,14,20.90
2015,06,27,08,15,20.90
2015,06,27,08,16,20.90
2015,06,27,08,17,20.90
2015,06,27,08,18,20.90
2015,06,27,08,19,20.90
2015,06,27,08,20,20.90
2015,06,27,08,21,20.90
2015,06,27,08,22,20.90
2015,06,27,08,23,20.90
2015,06,27,08,24,20.80
2015,06,27,08,25,20.70
2015,06,27,08,26,20.60
2015,06,27,08,27,20.60
2015,06,27,08,28,20.50
2015,06,27,08,29,20.50
2015,06,27,08,30,20.50
2015,06,27,08,31,20.40
2015,06,27,08,32,20.40
2015,06,27,08,33,20.40
2015,06,27,08,34,20.40
2015,06,27,08,35,20.40
2015,06,27,08,36,20.40
2015,06,27,08,37,20.40
2015,06,27,08,38,20.40
2015,06,27,08,39,20.40
2015,06,27,08,40,20.50
2015,06,27,08,41,20.50
2015,06,27,08,42,20.60
2015,06,27,08,43,20.70
2015,06,27,08,44,20.80
2015,06,27,08,45,20.90
2015,06,27,08,46,21.00
2015,06,27,08,47,21.10
2015,06,27,08,48,21.20
2015,06,27,08,49,21.30
2015,06,27,08,50,21.40
2015,06,27,08,51,21.50
2015,06,27,08,52,21.60
2015,06,27,08,53,21.60
2015,06,27,08,54,21.60
2015,06,27,08,55,21.60
2015,06,27,08,56,21.60
2015,06,27,08,57,21.60
2015,06,27,08,58,21.70
2015,06,27,08,59,21.70
2015,06,27,09,00,21.70
2015,06,27,09,01,21.80
2015,06,27,09,02,21.70
2015,06,27,09,03,21.60
2015,06,27,09,04,21.50
2015,06,27,09,05,21.40
2015,06,27,09,06,21.40
2015,06,27,09,07,21.30
2015,06,27,09,08,21.30
2015,06,27,09,09,21.30
2015,06,27,09,10,21.30
2015,06,27,09,11,21.40
2015,06,27,09,12,21.40
2015,06,27,09,13,21.50
2015,06,27,09,14,21.50
2015,06,27,09,15,21.60
2015,06,27,09,16,21.60
2015,06,27,09,17,21.60
2015,06,27,09,18,21.70
2015,06,27,09,19,21.70
2015,06,27,09,20,21.80
2015,06,27,09,21,21.90
2015,06,27,09,22,22.00
2015,06,27,09,23,22.00
2015,06,27,09,24,22.00
2015,06,27,09,25,21.90
2015,06,27,09,26,21.80
2015,06,27,09,27,21.80
2015,06,27,09,28,21.80
2015,06,27,09,29,21.80
2015,06,27,09,30,21.70
2015,06,27,09,31,21.60
2015,06,27,09,32,21.60
2015,06,27,09,33,21.60
2015,06,27,09,34,21.60
2015,06,27,09,35,21.60
2015,06,27,09,36,21.50
2015,06,27,09,37,21.50
2015,06,27,09,38,21.50
2015,06,27,09,39,21.50
2015,06,27,09,40,21.50
2015,06,27,09,41,21.50
2015,06,27,09,42,21.40
2015,06,27,09,43,21.40
2015,06,27,09,44,21.50
2015,06,27,09,45,21.50
2015,06,27,09,46,21.60
2015,06,27,09,47,21.60
2015,06,27,09,48,21.70
2015,06,27,09,49,21.70
2015,06,27,09,50,21.70
2015,06,27,09,51,21.80
2015,06,27,09,52,21.90
2015,06,27,09,53,22.00
2015,06,27,09,54,22.10
2015,06,27,09,55,22.00
2015,06,27,09,56,22.00
2015,06,27,09,57,21.90
2015,06,27,09,58,21.80
2015,06,27,09,59,21.80
2015,06,27,10,00,21.80
2015,06,27,10,01,21.90
2015,06,27,10,02,22.00
2015,06,27,10,03,22.10
2015,06,27,10,04,22.20
2015,06,27,10,05,22.30
2015,06,27,10,06,22.30
2015,06,27,10,07,22.40
2015,06,27,10,08,22.40
2015,06,27,10,09,22.40
2015,06,27,10,10,22.20
2015,06,27,10,11,22.10
2015,06,27,10,12,22.00
2015,06,27,10,13,22.00
2015,06,27,10,14,21.90
2015,06,27,10,15,21.80
2015,06,27,10,16,21.80
2015,06,27,10,17,21.90
2015,06,27,10,18,21.90
2015,06,27,10,19,21.80
2015,06,27,10,20,21.80
2015,06,27,10,21,21.80
2015,06,27,10,22,21.80
2015,06,27,10,23,21.80
2015,06,27,10,24,21.80
2015,06,27,10,25,21.80
2015,06,27,10,26,21.90
2015,06,27,10,27,22.10
2015,06,27,10,28,22.10
2015,06,27,10,29,22.10
2015,06,27,10,30,22.10
2015,06,27,10,31,22.10
2015,06,27,10,32,22.10
2015,06,27,10,33,22.00
2015,06,27,10,34,21.90
2015,06,27,10,35,21.90
2015,06,27,10,36,22.00
2015,06,27,10,37,22.10
2015,06,27,10,38,22.20
2015,06,27,10,39,22.20
2015,06,27,10,40,22.20
2015,06,27,10,41,22.10
2015,06,27,10,42,22.00
2015,06,27,10,43,22.00
2015,06,27,10,44,21.90
2015,06,27,10,45,21.80
2015,06,27,10,46,21.70
2015,06,27,10,47,21.70
2015,06,27,10,48,21.60
2015,06,27,10,49,21.60
2015,06,27,10,50,21.60
2015,06,27,10,51,21.60
2015,06,27,10,52,21.60
2015,06,27,10,53,21.60
2015,06,27,10,54,21.50
2015,06,27,10,55,21.50
2015,06,27,10,56,21.50
2015,06,27,10,57,21.60
2015,06,27,10,58,21.60
2015,06,27,10,59,21.70
2015,06,27,11,00,21.80
2015,06,27,11,01,21.80
2015,06,27,11,02,21.80
2015,06,27,11,03,21.70
2015,06,27,11,04,21.50
2015,06,27,11,05,21.30
2015,06,27,11,06,21.20
2015,06,27,11,07,21.10
2015,06,27,11,08,21.00
2015,06,27,11,09,21.00
2015,06,27,11,10,21.00
2015,06,27,11,11,21.10
2015,06,27,11,12,21.20
2015,06,27,11,13,21.40
2015,06,27,11,14,21.50
2015,06,27,11,15,21.70
2015,06,27,11,16,21.80
2015,06,27,11,17,21.90
2015,06,27,11,18,22.00
2015,06,27,11,19,22.00
2015,06,27,11,20,22.10
2015,06,27,11,21,22.30
2015,06,27,11,22,22.50
2015,06,27,11,23,22.60
2015,06,27,11,24,22.70
2015,06,27,11,25,22.80
2015,06,27,11,26,22.80
2015,06,27,11,27,22.90
2015,06,27,11,28,22.90
2015,06,27,11,29,22.90
2015,06,27,11,30,22.70
2015,06,27,11,31,22.50
2015,06,27,11,32,22.40
2015,06,27,11,33,22.30
2015,06,27,11,34,22.20
2015,06,27,11,35,22.20
2015,06,27,11,36,22.20
2015,06,27,11,37,22.30
2015,06,27,11,38,22.30
2015,06,27,11,39,22.30
2015,06,27,11,40,22.40
2015,06,27,11,41,22.50
2015,06,27,11,42,22.60
2015,06,27,11,43,22.70
2015,06,27,11,44,22.90
2015,06,27,11,45,23.00
2015,06,27,11,46,23.00
2015,06,27,11,47,23.00
2015,06,27,11,48,23.10
2015,06,27,11,49,23.20
2015,06,27,11,50,23.30
2015,06,27,11,51,23.40
2015,06,27,11,52,23.60
2015,06,27,11,53,23.80
2015,06,27,11,54,23.80
2015,06,27,11,55,23.80
2015,06,27,11,56,23.90
2015,06,27,11,57,23.90
2015,06,27,11,58,23.90
2015,06,27,11,59,23.90
2015,06,27,12,00,23.90
2015,06,27,12,01,23.90
2015,06,27,12,02,23.90
2015,06,27,12,03,23.90
2015,06,27,12,04,23.90
2015,06,27,12,05,23.90
2015,06,27,12,06,23.70
2015,06,27,12,07,23.70
2015,06,27,12,08,23.70
2015,06,27,12,09,23.80
2015,06,27,12,10,23.80
2015,06,27,12,11,23.90
2015,06,27,12,12,24.10
2015,06,27,12,13,24.10
2015,06,27,12,14,24.20
2015,06,27,12,15,24.30
2015,06,27,12,16,24.40
2015,06,27,12,17,24.50
2015,06,27,12,18,24.60
2015,06,27,12,19,24.60
2015,06,27,12,20,24.50
2015,06,27,12,21,24.50
2015,06,27,12,22,24.40
2015,06,27,12,23,24.50
2015,06,27,12,24,24.50
2015,06,27,12,25,24.70
2015,06,27,12,26,24.80
2015,06,27,12,27,24.90
2015,06,27,12,28,24.80
2015,06,27,12,29,24.80
2015,06,27,12,30,24.70
2015,06,27,12,31,24.60
2015,06,27,12,32,24.50
2015,06,27,12,33,24.40
2015,06,27,12,34,24.20
2015,06,27,12,35,24.20
2015,06,27,12,36,24.10
2015,06,27,12,37,24.00
2015,06,27,12,38,24.00
2015,06,27,12,39,23.90
2015,06,27,12,40,23.90
2015,06,27,12,41,24.00
2015,06,27,12,42,24.00
2015,06,27,12,43,24.10
2015,06,27,12,44,24.10
2015,06,27,12,45,24.20
2015,06,27,12,46,24.30
2015,06,27,12,47,24.40
2015,06,27,12,48,24.40
2015,06,27,12,49,24.50
2015,06,27,12,50,24.50
2015,06,27,12,51,24.60
2015,06,27,12,52,24.70
2015,06,27,12,53,24.70
2015,06,27,12,54,24.80
2015,06,27,12,55,24.90
2015,06,27,12,56,24.90
2015,06,27,12,57,25.00
2015,06,27,12,58,25.00
2015,06,27,12,59,25.00
2015,06,27,13,00,25.00
2015,06,27,13,01,25.00
2015,06,27,13,02,24.90
2015,06,27,13,03,24.80
2015,06,27,13,04,24.70
2015,06,27,13,05,24.70
2015,06,27,13,06,24.60
2015,06,27,13,07,24.60
2015,06,27,13,08,24.60
2015,06,27,13,09,24.60
2015,06,27,13,10,24.60
2015,06,27,13,11,24.70
2015,06,27,13,12,24.70
2015,06,27,13,13,24.70
2015,06,27,13,14,24.60
2015,06,27,13,15,24.60
2015,06,27,13,16,24.50
2015,06,27,13,17,24.50
2015,06,27,13,18,24.40
2015,06,27,13,19,24.40
2015,06,27,13,20,24.40
2015,06,27,13,21,24.40
2015,06,27,13,22,24.40
2015,06,27,13,23,24.50
2015,06,27,13,24,24.60
2015,06,27,13,25,24.70
2015,06,27,13,26,24.80
2015,06,27,13,27,24.90
2015,06,27,13,28,25.00
2015,06,27,13,29,25.00
2015,06,27,13,30,25.00
2015,06,27,13,31,24.90
2015,06,27,13,32,24.90
2015,06,27,13,33,24.80
2015,06,27,13,34,24.80
2015,06,27,13,35,24.70
2015,06,27,13,36,24.80
2015,06,27,13,37,24.90
2015,06,27,13,38,24.90
2015,06,27,13,39,24.90
2015,06,27,13,40,24.90
2015,06,27,13,41,24.90
2015,06,27,13,42,24.90
2015,06,27,13,43,24.90
2015,06,27,13,44,24.90
2015,06,27,13,45,24.90
2015,06,27,13,46,25.00
2015,06,27,13,47,25.00
2015,06,27,13,48,25.10
2015,06,27,13,49,25.10
2015,06,27,13,50,25.00
2015,06,27,13,51,25.00
2015,06,27,13,52,25.00
2015,06,27,13,53,25.00
2015,06,27,13,54,25.10
2015,06,27,13,55,25.20
2015,06,27,13,56,25.20
2015,06,27,13,57,25.20
2015,06,27,13,58,25.30
2015,06,27,13,59,25.40
2015,06,27,14,00,25.50
2015,06,27,14,01,25.60
2015,06,27,14,02,25.70
2015,06,27,14,03,25.80
2015,06,27,14,04,25.90
2015,06,27,14,05,25.80
2015,06,27,14,06,25.90
2015,06,27,14,07,25.90
2015,06,27,14,08,25.90
2015,06,27,14,09,25.80
2015,06,27,14,10,25.80
2015,06,27,14,11,25.90
2015,06,27,14,12,26.00
2015,06,27,14,13,26.10
2015,06,27,14,14,26.10
2015,06,27,14,15,26.00
2015,06,27,14,16,26.00
2015,06,27,14,17,26.00
2015,06,27,14,18,26.00
2015,06,27,14,19,26.00
2015,06,27,14,20,26.00
2015,06,27,14,21,26.20
2015,06,27,14,22,26.20
2015,06,27,14,23,26.30
2015,06,27,14,24,26.40
2015,06,27,14,25,26.50
2015,06,27,14,26,26.60
2015,06,27,14,27,26.70
2015,06,27,14,28,26.80
2015,06,27,14,29,26.90
2015,06,27,14,30,27.00
2015,06,27,14,31,27.00
2015,06,27,14,32,27.00
2015,06,27,14,33,27.00
2015,06,27,14,34,26.90
2015,06,27,14,35,26.90
2015,06,27,14,36,27.00
2015,06,27,14,37,26.90
2015,06,27,14,38,26.90
2015,06,27,14,39,26.90
2015,06,27,14,40,26.80
2015,06,27,14,41,26.80
2015,06,27,14,42,26.90
2015,06,27,14,43,26.90
2015,06,27,14,44,26.90
2015,06,27,14,45,26.90
2015,06,27,14,46,26.90
2015,06,27,14,47,26.90
2015,06,27,14,48,26.90
2015,06,27,14,49,27.00
2015,06,27,14,50,26.90
2015,06,27,14,51,26.90
2015,06,27,14,52,26.90
2015,06,27,14,53,26.90
2015,06,27,14,54,26.90
2015,06,27,14,55,27.00
2015,06,27,14,56,27.10
2015,06,27,14,57,27.20
2015,06,27,14,58,27.20
2015,06,27,14,59,27.20
2015,06,27,15,00,27.20
2015,06,27,15,01,27.30
2015,06,27,15,02,27.40
2015,06,27,15,03,27.40
2015,06,27,15,04,27.50
2015,06,27,15,05,27.60
2015,06,27,15,06,27.60
2015,06,27,15,07,27.70
2015,06,27,15,08,27.70
2015,06,27,15,09,27.70
2015,06,27,15,10,27.80
2015,06,27,15,11,27.70
2015,06,27,15,12,27.70
2015,06,27,15,13,27.70
2015,06,27,15,14,27.70
2015,06,27,15,15,27.80
2015,06,27,15,16,27.80
2015,06,27,15,17,27.80
2015,06,27,15,18,27.90
2015,06,27,15,19,27.90
2015,06,27,15,20,27.90
2015,06,27,15,21,27.90
2015,06,27,15,22,28.00
2015,06,27,15,23,27.90
2015,06,27,15,24,27.90
2015,06,27,15,25,27.90
2015,06,27,15,26,27.90
2015,06,27,15,27,27.80
2015,06,27,15,28,27.90
2015,06,27,15,29,27.90
2015,06,27,15,30,27.90
2015,06,27,15,31,27.80
2015,06,27,15,32,27.90
2015,06,27,15,33,27.90
2015,06,27,15,34,27.90
2015,06,27,15,35,28.00
2015,06,27,15,36,28.00
2015,06,27,15,37,28.10
2015,06,27,15,38,28.20
2015,06,27,15,39,28.10
2015,06,27,15,40,28.10
2015,06,27,15,41,28.10
2015,06,27,15,42,28.10
2015,06,27,15,43,28.20
2015,06,27,15,44,28.20
2015,06,27,15,45,28.30
2015,06,27,15,46,28.30
2015,06,27,15,47,28.20
2015,06,27,15,48,28.20
2015,06,27,15,49,28.20
2015,06,27,15,50,28.30
2015,06,27,15,51,28.30
2015,06,27,15,52,28.30
2015,06,27,15,53,28.20
2015,06,27,15,54,28.30
2015,06,27,15,55,28.30
2015,06,27,15,56,28.30
2015,06,27,15,57,28.30
2015,06,27,15,58,28.40
2015,06,27,15,59,28.40
2015,06,27,16,00,28.60
2015,06,27,16,01,28.70
2015,06,27,16,02,28.80
2015,06,27,16,03,28.80
2015,06,27,16,04,28.90
2015,06,27,16,05,29.00
2015,06,27,16,06,29.10
2015,06,27,16,07,29.10
2015,06,27,16,08,29.00
2015,06,27,16,09,28.90
2015,06,27,16,10,28.90
2015,06,27,16,11,28.80
2015,06,27,16,12,28.80
2015,06,27,16,13,28.70
2015,06,27,16,14,28.70
2015,06,27,16,15,28.70
2015,06,27,16,16,28.70
2015,06,27,16,17,28.70
2015,06,27,16,18,28.70
2015,06,27,16,19,28.70
2015,06,27,16,20,28.70
2015,06,27,16,21,28.80
2015,06,27,16,22,28.90
2015,06,27,16,23,29.00
2015,06,27,16,24,29.00
2015,06,27,16,25,29.00
2015,06,27,16,26,29.00
2015,06,27,16,27,29.00
2015,06,27,16,28,29.00
2015,06,27,16,29,29.00
2015,06,27,16,30,29.10
2015,06,27,16,31,29.10
2015,06,27,16,32,29.10
2015,06,27,16,33,29.10
2015,06,27,16,34,29.10
2015,06,27,16,35,28.90
2015,06,27,16,36,28.90
2015,06,27,16,37,28.90
2015,06,27,16,38,28.80
2015,06,27,16,39,28.80
2015,06,27,16,40,28.90
2015,06,27,16,41,28.90
2015,06,27,16,42,29.00
2015,06,27,16,43,29.00
2015,06,27,16,44,28.90
2015,06,27,16,45,28.90
2015,06,27,16,46,28.80
2015,06,27,16,47,28.80
2015,06,27,16,48,28.90
2015,06,27,16,49,28.90
2015,06,27,16,50,29.00
2015,06,27,16,51,29.10
2015,06,27,16,52,29.20
2015,06,27,16,53,29.30
2015,06,27,16,54,29.30
2015,06,27,16,55,29.30
2015,06,27,16,56,29.40
2015,06,27,16,57,29.40
2015,06,27,16,58,29.40
2015,06,27,16,59,29.40
2015,06,27,17,00,29.50
2015,06,27,17,01,29.60
2015,06,27,17,02,29.50
2015,06,27,17,03,29.50
2015,06,27,17,04,29.40
2015,06,27,17,05,29.40
2015,06,27,17,06,29.40
2015,06,27,17,07,29.40
2015,06,27,17,08,29.50
2015,06,27,17,09,29.50
2015,06,27,17,10,29.60
2015,06,27,17,11,29.70
2015,06,27,17,12,29.80
2015,06,27,17,13,29.80
2015,06,27,17,14,30.00
2015,06,27,17,15,30.10
2015,06,27,17,16,30.20
2015,06,27,17,17,30.20
2015,06,27,17,18,30.30
2015,06,27,17,19,30.30